sat.trackr.live / text

‹ back to catalog

STARLINK-6216

NORAD 56893 · 2023-083T

PAYLOAD ACTIVE UNKNOWN

§ Identity

Operator
Country
US
Launch date
2023-06-12
Launch site
AFETR
Launch vehicle
Mass (kg)
RCS (m²)

Purposes: comms

External: N2YO · Heavens-Above · Gunter

§ Orbital elements

Epoch: 2026-09-20T20:59:50.382816Z

Period
94.27 min
Inclination
43.0013°
Eccentricity
0.0001098
Mean motion
15.27579395 rev/d
Perigee alt
482.3 km
Apogee alt
483.8 km
Semi-major
6,861.2 km
B*
1.4975e-5
RAAN
62.6992°
Arg perigee
270.8684°
Mean anomaly
89.2042°
Rev number
18,160

§ Raw data

STARLINK-62161 56893U 23083T   26263.87488869  .00000150  00000+0  14975-4 0  99992 56893  43.0013  62.6992 0001098 270.8684  89.2042 15.27579395181605

JSON: /api/v1/satellites/56893 · /tle

For live sub-satellite position, see the globe view (requires WebGL).

§ Visibility from observer

Set your observer location to see the next 7 days of passes ≥ 10°. The values pass through the URL so the page stays shareable.

No JS? Fill the form by hand. The geolocation button needs JavaScript.